• In Uzbekistan
  • List of Countries
  • For 7 days
  • Water Temperature
  • Satellite Maps
  • Weather Map
  • Weather Widgets
  • user-avatar
    Login

    Hourly Weather Rosolin

    Today, 24 September, Monday

    Time Temperature Precipitation Wind Pressure Humidity
    00:00 +11°C° 0.1 mm 9 mps 711 mmHg 62%
    01:00 +11°C° 0.1 mm 9 mps 710 mmHg 66%
    02:00 +12°C° 0 mm 4 mps 709 mmHg 75%
    03:00 +12°C° 1.4 mm 5 mps 709 mmHg 80%
    04:00 +10°C° 1.4 mm 6 mps 709 mmHg 85%
    05:00 +9°C° 1.4 mm 6 mps 709 mmHg 90%
    06:00 +9°C° 0.7 mm 6 mps 710 mmHg 90%
    07:00 +8°C° 0.7 mm 6 mps 711 mmHg 90%
    08:00 +7°C° 0.7 mm 6 mps 713 mmHg 89%
    09:00 +7°C° 0.1 mm 6 mps 714 mmHg 88%
    10:00 +7°C° 0.1 mm 6 mps 715 mmHg 86%
    11:00 +7°C° 0.1 mm 6 mps 716 mmHg 84%
    12:00 +7°C° 0.1 mm 6 mps 716 mmHg 79%
    13:00 +8°C° 0.1 mm 6 mps 717 mmHg 75%
    14:00 +8°C° 0.1 mm 6 mps 717 mmHg 71%
    15:00 +8°C° 0.1 mm 6 mps 718 mmHg 69%
    16:00 +8°C° 0.1 mm 6 mps 718 mmHg 66%
    17:00 +8°C° 0.1 mm 6 mps 718 mmHg 64%
    18:00 +6°C° 0 mm 5 mps 719 mmHg 68%
    19:00 +5°C° 0 mm 4 mps 719 mmHg 71%
    20:00 +4°C° 0 mm 3 mps 720 mmHg 75%
    21:00 +4°C° 0 mm 4 mps 720 mmHg 76%
    22:00 +4°C° 0 mm 4 mps 720 mmHg 77%
    23:00 +4°C° 0 mm 4 mps 720 mmHg 79%

    Tomorrow, 25 September, Tuesday

    Time Temperature Precipitation Wind Pressure Humidity
    00:00 +3°C° 0.2 mm 4 mps 721 mmHg 81%
    01:00 +3°C° 0.2 mm 4 mps 721 mmHg 84%
    02:00 +3°C° 0.2 mm 4 mps 721 mmHg 86%
    03:00 +3°C° 0.1 mm 4 mps 722 mmHg 87%
    04:00 +3°C° 0.1 mm 4 mps 722 mmHg 89%
    05:00 +2°C° 0.1 mm 3 mps 722 mmHg 90%
    06:00 +3°C° 0 mm 4 mps 723 mmHg 88%
    07:00 +3°C° 0 mm 4 mps 724 mmHg 86%
    08:00 +3°C° 0 mm 4 mps 724 mmHg 84%
    09:00 +3°C° 0.1 mm 5 mps 725 mmHg 78%
    10:00 +6°C° 0.1 mm 5 mps 725 mmHg 71%
    11:00 +7°C° 0.1 mm 5 mps 726 mmHg 65%
    12:00 +8°C° 0.1 mm 6 mps 726 mmHg 60%
    13:00 +8°C° 0.1 mm 6 mps 726 mmHg 55%
    14:00 +9°C° 0.1 mm 6 mps 726 mmHg 49%
    15:00 +9°C° 0.1 mm 5 mps 727 mmHg 52%
    16:00 +8°C° 0.1 mm 5 mps 727 mmHg 55%
    17:00 +8°C° 0.1 mm 5 mps 727 mmHg 58%
    18:00 +6°C° 0 mm 4 mps 728 mmHg 64%
    19:00 +5°C° 0 mm 3 mps 728 mmHg 71%
    20:00 +4°C° 0 mm 2 mps 728 mmHg 78%
    21:00 +4°C° 0 mm 2 mps 729 mmHg 79%
    22:00 +3°C° 0 mm 2 mps 729 mmHg 80%
    23:00 +2°C° 0 mm 2 mps 730 mmHg 81%

    Day after tomorrow, 26 September, Wednesday

    Time Temperature Precipitation Wind Pressure Humidity
    00:00 +2°C° 0 mm 2 mps 730 mmHg 82%
    01:00 +2°C° 0 mm 2 mps 730 mmHg 84%
    02:00 +2°C° 0 mm 1 mps 730 mmHg 85%
    03:00 +2°C° 0 mm 1 mps 730 mmHg 86%
    04:00 +1°C° 0 mm 1 mps 731 mmHg 87%
    05:00 +1°C° 0 mm 1 mps 731 mmHg 88%
    06:00 +2°C° 0 mm 1 mps 731 mmHg 84%
    07:00 +3°C° 0 mm 1 mps 731 mmHg 80%
    08:00 +4°C° 0 mm 1 mps 732 mmHg 76%
    09:00 +6°C° 0 mm 1 mps 732 mmHg 66%
    10:00 +8°C° 0 mm 1 mps 732 mmHg 56%
    11:00 +9°C° 0 mm 2 mps 732 mmHg 46%
    12:00 +10°C° 0 mm 2 mps 731 mmHg 43%
    13:00 +12°C° 0 mm 1 mps 731 mmHg 40%
    14:00 +13°C° 0 mm 1 mps 731 mmHg 38%
    15:00 +12°C° 0 mm 1 mps 730 mmHg 42%
    16:00 +12°C° 0 mm 1 mps 730 mmHg 46%
    17:00 +12°C° 0 mm 1 mps 729 mmHg 50%
    18:00 +10°C° 0 mm 1 mps 729 mmHg 53%
    19:00 +7°C° 0 mm 2 mps 729 mmHg 56%
    20:00 +6°C° 0 mm 2 mps 728 mmHg 59%
    21:00 +6°C° 0 mm 2 mps 728 mmHg 58%
    22:00 +6°C° 0 mm 2 mps 728 mmHg 58%
    23:00 +5°C° 0 mm 3 mps 728 mmHg 57%

    27 September, Thursday

    Time Temperature Precipitation Wind Pressure Humidity
    00:00 +5°C° 0 mm 3 mps 728 mmHg 58%
    01:00 +5°C° 0 mm 3 mps 728 mmHg 59%
    02:00 +5°C° 0 mm 3 mps 728 mmHg 60%
    03:00 +5°C° 0 mm 3 mps 727 mmHg 60%
    04:00 +4°C° 0 mm 3 mps 727 mmHg 61%
    05:00 +4°C° 0 mm 3 mps 726 mmHg 61%
    06:00 +4°C° 0 mm 3 mps 726 mmHg 59%
    07:00 +5°C° 0 mm 3 mps 726 mmHg 58%
    08:00 +6°C° 0 mm 4 mps 726 mmHg 56%
    09:00 +7°C° 0 mm 4 mps 726 mmHg 53%
    10:00 +10°C° 0 mm 4 mps 726 mmHg 49%
    11:00 +12°C° 0 mm 4 mps 726 mmHg 46%
    12:00 +13°C° 0 mm 4 mps 726 mmHg 46%
    13:00 +14°C° 0 mm 4 mps 726 mmHg 46%
    14:00 +15°C° 0 mm 4 mps 726 mmHg 46%
    15:00 +14°C° 0 mm 4 mps 725 mmHg 49%
    16:00 +14°C° 0 mm 3 mps 725 mmHg 52%
    17:00 +14°C° 0 mm 3 mps 725 mmHg 56%
    18:00 +12°C° 0 mm 3 mps 725 mmHg 58%
    19:00 +10°C° 0 mm 3 mps 725 mmHg 60%
    20:00 +9°C° 0 mm 2 mps 725 mmHg 63%
    21:00 +9°C° 0 mm 2 mps 725 mmHg 63%
    22:00 +9°C° 0 mm 2 mps 725 mmHg 62%
    23:00 +8°C° 0 mm 2 mps 725 mmHg 62%

    28 September, Friday

    Time Temperature Precipitation Wind Pressure Humidity
    00:00 +9°C° 0 mm 2 mps 724 mmHg 61%
    01:00 +9°C° 0 mm 2 mps 724 mmHg 59%
    02:00 +10°C° 0 mm 2 mps 724 mmHg 58%
    03:00 +9°C° 0 mm 2 mps 723 mmHg 61%
    04:00 +8°C° 0 mm 2 mps 723 mmHg 63%
    05:00 +8°C° 0 mm 2 mps 722 mmHg 66%
    06:00 +8°C° 0 mm 2 mps 722 mmHg 65%
    07:00 +9°C° 0 mm 2 mps 722 mmHg 64%
    08:00 +10°C° 0 mm 2 mps 722 mmHg 63%
    09:00 +12°C° 0 mm 3 mps 722 mmHg 58%
    10:00 +14°C° 0 mm 3 mps 722 mmHg 53%
    11:00 +17°C° 0 mm 4 mps 721 mmHg 48%
    12:00 +18°C° 0 mm 4 mps 721 mmHg 47%
    13:00 +18°C° 0 mm 4 mps 720 mmHg 45%
    14:00 +19°C° 0 mm 5 mps 720 mmHg 44%
    15:00 +18°C° 0 mm 4 mps 719 mmHg 47%
    16:00 +17°C° 0 mm 4 mps 718 mmHg 50%
    17:00 +17°C° 0 mm 3 mps 718 mmHg 53%
    18:00 +14°C° 0 mm 3 mps 718 mmHg 55%
    19:00 +13°C° 0 mm 3 mps 718 mmHg 57%
    20:00 +12°C° 0 mm 3 mps 717 mmHg 59%
    21:00 +12°C° 0 mm 3 mps 717 mmHg 60%
    22:00 +12°C° 0 mm 3 mps 717 mmHg 60%
    23:00 +12°C° 0 mm 3 mps 717 mmHg 60%

    29 September, Saturday

    Time Temperature Precipitation Wind Pressure Humidity
    00:00 +13°C° 0 mm 2 mps 717 mmHg 63%
    01:00 +13°C° 0 mm 2 mps 717 mmHg 66%
    02:00 +12°C° 0 mm 2 mps 717 mmHg 69%
    03:00 +12°C° 0 mm 2 mps 717 mmHg 73%
    04:00 +10°C° 0 mm 2 mps 717 mmHg 77%
    05:00 +11°C° 0 mm 1 mps 717 mmHg 82%
    06:00 +10°C° 0.5 mm 2 mps 717 mmHg 85%
    07:00 +9°C° 0.5 mm 3 mps 718 mmHg 88%
    08:00 +9°C° 0.5 mm 3 mps 718 mmHg 91%
    09:00 +9°C° 1.1 mm 3 mps 718 mmHg 90%
    10:00 +8°C° 1.1 mm 4 mps 719 mmHg 89%
    11:00 +7°C° 1.1 mm 4 mps 719 mmHg 88%
    12:00 +8°C° 0.4 mm 5 mps 720 mmHg 83%
    13:00 +8°C° 0.4 mm 5 mps 720 mmHg 79%
    14:00 +9°C° 0.4 mm 5 mps 720 mmHg 74%
    15:00 +8°C° 0.1 mm 5 mps 721 mmHg 73%
    16:00 +8°C° 0.1 mm 5 mps 721 mmHg 71%
    17:00 +8°C° 0.1 mm 5 mps 721 mmHg 70%
    18:00 +7°C° 0 mm 5 mps 722 mmHg 71%
    19:00 +6°C° 0 mm 5 mps 722 mmHg 72%
    20:00 +5°C° 0 mm 4 mps 723 mmHg 73%
    21:00 +5°C° 0 mm 5 mps 723 mmHg 73%
    22:00 +3°C° 0 mm 5 mps 724 mmHg 73%
    23:00 +3°C° 0 mm 5 mps 724 mmHg 74%
    Show more